Location: *
(40.4270°N, 9.4940°E)
Time: 12:12:33
(UTC+01:00)

Okean 2 - Visible Passes

Search period start: 02 March 2015 00:00
Search period end: 12 March 2015 00:00
Orbit: 567 x 583 km, 82.5° (Epoch: 02 March)

Date Brightness Start Highest point End Pass type
(mag) Time Alt. Az. Time Alt. Az. Time Alt. Az.
05 Mar 6.4 18:37:53 10° NW 18:41:17 23° W 18:44:35 10° SW visible
06 Mar 6.9 05:26:16 10° ESE 05:28:15 14° E 05:30:27 10° NE visible
06 Mar 6.7 18:41:56 10° NW 18:44:50 18° W 18:47:35 10° SW visible
07 Mar 6.6 05:28:59 10° SE 05:31:47 18° E 05:34:44 10° NE visible
07 Mar 7.0 18:46:15 10° NW 18:48:22 13° W 18:50:16 10° WSW visible
08 Mar 6.0 05:31:59 10° SE 05:35:19 24° E 05:38:46 10° NE visible
09 Mar 5.4 05:35:10 10° SSE 05:38:52 32° E 05:42:39 10° NNE visible
10 Mar 4.8 05:38:28 10° SSE 05:42:25 44° E 05:46:27 10° NNE visible
11 Mar 4.1 05:41:53 10° S 05:45:59 60° E 05:50:09 10° NNE visible
